Flag for Germany Weather past 2 weeks in Marl, North Rhine-Westphalia, Germany

Now
72 °F

Passing clouds.


Feels Like: 71 °F
Forecast: 66 / 86 °F
Wind: 1 mph from North

Location: Duesseldorf

Current Time: Jul 4, 2015 at 4:36:54 AM

Latest Report: Jul 4, 2015 at 4:00 AM


Visibility: 16 mi

Pressure: 30.09 "Hg

Humidity: 83%

Dew point: 67 °F

Location of MarlLocation

Historic Weather in Marl — Graph

°F

Marl temperature yesterday

Maximum temperature yesterday: 90 °F (at 6:00 PM)
Minimum temperature yesterday: 68 °F (at 7:00 AM)
Average temperature yesterday: 80 °F

Past Weeks' High & Low Weather Summary

 TemperatureHumidityPressure
High98 °F (Jul 2, 4:00 PM)98% (Jun 22, 10:00 PM)30.25 "Hg (Jun 22, 10:00 PM)
Low49 °F (Jun 23, 4:00 AM)26% (Jul 1, 6:00 PM)29.72 "Hg (Jun 22, 8:00 PM)
Average66 °F67%30.07 "Hg
* Reported Jun 19 3:00 AM — Jul 4 3:00 AM, Marl, Weather by CustomWeather, © 2015

Note: Actual official high and low records may vary slightly from our data, if they occured in-between our weather recording intervals... More about our weather records

Advertising

Marl weather history for previous 24 hours

 ConditionsComfort  
Time TempWeatherWind HumidityBarometerVisibility
3:00 AM
Sat, Jul 4
74 °FPassing clouds.1 mph78%30.10 "Hg16 mi
2:00 AM75 °FPassing clouds.2 mph75%30.13 "Hg16 mi
1:00 AM78 °FPassing clouds.3 mph69%30.14 "Hg16 mi
12:00 AM79 °FPassing clouds.5 mph67%30.15 "Hg12 mi
10:00 PM
Fri, Jul 3
83 °FPassing clouds.3 mph60%30.16 "Hg12 mi
9:00 PM85 °FPassing clouds.3 mph55%30.16 "Hg12 mi
8:00 PM88 °FPassing clouds.3 mph49%30.16 "Hg17 mi
7:00 PM90 °FPassing clouds.3 mph45%30.16 "Hg16 mi
6:00 PM90 °FPassing clouds.2 mph45%30.16 "Hg16 mi
4:00 PM89 °FScattered clouds.2 mph46%30.19 "Hg16 mi
3:00 PM87 °FPassing clouds.3 mph48%30.20 "Hg17 mi
2:00 PM85 °FSunny.2 mph50%30.21 "Hg17 mi
1:00 PM84 °FSunny.3 mph55%30.22 "Hg19 mi
12:00 PM81 °FSunny.1 mph58%30.23 "Hg22 mi
10:00 AM77 °FPassing clouds.2 mph65%30.24 "Hg19 mi
9:00 AM74 °FPassing clouds.2 mph72%30.24 "Hg19 mi
8:00 AM71 °FPassing clouds.1 mph79%30.25 "Hg16 mi
7:00 AM68 °FScattered clouds.2 mph87%30.24 "Hg16 mi
4:00 AM70 °FPassing clouds.2 mph77%30.20 "Hg19 mi
Weather by CustomWeather, © 2015

See weather overviewHow to use our weather pages